Regional Weather Roundup
Issued by NWS

Home | Current Version | Previous Version | Graphics & Text | Print | Product List | Glossary On
Versions: 1 2 3 4 5 6 7 8 9 10 11 12 13 14 15 16 17 18 19 20 21 22 23 24 25 26 27 28 29 30 31 32 33 34 35 36 37 38 39 40 41 42 43 44 45 46 47 48 49 50
000
ASUS45 KBOU 270007
RWRCO

WEATHER ROUNDUP FOR COLORADO
NATIONAL WEATHER SERVICE DENVER/BOULDER CO
600 PM MDT TUE MAY 26 2015

NOTE: "FAIR" INDICATES FEW OR NO CLOUDS BELOW 12000 FEET WITH NO
SIGNIFICANT WEATHER AND/OR OBSTRUCTIONS TO VISIBILITY.

COZ001>005-013-030-031-270100-
...NORTHWEST COLORADO...

CITY           SKY/WX    TMP DP  RH WIND       PRES   REMARKS
CRAIG          PTSUNNY   61  43  51 S9        30.07S
HAYDEN         PTSUNNY   55  43  62 SE9       30.10S
MEEKER         RAIN      50  42  74 SW12G29   30.14R
MOUNT WERNER   NOT AVBL
STEAMBOAT SPGS CLOUDY    54  42  63 NW3       30.12S
WALDEN         CLOUDY    46  39  76 SE9       30.17F
$$

COZ006>008-011-270100-
...WEST CENTRAL VALLEYS...

CITY           SKY/WX    TMP DP  RH WIND       PRES   REMARKS
GRAND JUNCTION CLOUDY    59  49  69 SE16      30.03F
MONTROSE       CLOUDY    58  47  66 SE6       30.14S
EAGLE          CLOUDY    55  45  67 N5        30.15S
RIFLE          LGT RAIN  52  47  83 W6        30.12R
DELTA          LGT RAIN  56  50  79 MISG      30.12R
NUCLA          CLOUDY    61  45  55 E9        30.14S
$$

COZ017>023-064>068-270100-
...SOUTHWEST COLORADO...

CITY           SKY/WX    TMP DP  RH WIND       PRES   REMARKS
DURANGO        PTSUNNY   65  32  29 W15       30.11S
CORTEZ         MOSUNNY   69  42  37 N10       30.08F
PAGOSA SPRINGS PTSUNNY   64  30  27 SW12      30.16F
TELLURIDE      CLOUDY    47  40  74 S6        30.28S
WOLF CREEK PAS NOT AVBL
$$

COZ009-010-012-014-032>034-037-058>063-270100-
...CENTRAL COLORADO...

CITY           SKY/WX    TMP DP  RH WIND       PRES   REMARKS
ASPEN          NOT AVBL
BUENA VISTA    CLOUDY    56  32  39 W17G31    30.14R
COPPER MTN     CLOUDY    39  32  75 W12       30.35R
BERTHOUD PASS  HVY SNOW  28  21  74 W10G23    30.39R VSB<1/4 WCI  19
COTTONWOOD PAS CLOUDY    50  32  50 N8G25     30.22F
GUNNISON       CLOUDY    55  36  47 W14       30.22R
KREMMLING      CLOUDY    52  37  58 N6        30.17S
LEADVILLE      CLOUDY    47  32  56 NW10      30.23R
SALIDA         CLOUDY    56  39  52 SW23G33   30.20R
SUNLIGHT       CLOUDY    37  37 100 CALM      30.32S
WILKERSON PASS PTSUNNY   46  28  49 SW5       30.33S
$$

COZ069>075-270100-
...SAN LUIS VALLEY/SANGRE DE CRISTO MOUNTAINS...

CITY           SKY/WX    TMP DP  RH WIND       PRES   REMARKS
ALAMOSA        CLOUDY    59  36  42 W17       30.13F
LA VETA PASS   RAIN     N/A N/A N/A MISG      30.27S
SAGUACHE       CLOUDY    54  36  50 E6        30.17F
$$

COZ035-036-038>040-270100-
...NORTHERN COLORADO FRONT RANGE...

CITY           SKY/WX    TMP DP  RH WIND       PRES   REMARKS
DENVER INTL AP PTSUNNY   65  46  50 E12       30.01S
DMNS CITY PARK   N/A     66  37  35 E1G8      30.01R
AURORA         PTSUNNY   65  45  48 E14       30.04R
FRONT RANGE AP PTSUNNY   66  48  52 E8        30.03F
ERIE MUNI ARPT PTSUNNY   66  44  44 CALM      30.00S
BOULDER MUN AP PTSUNNY   64  43  45 NW3       30.01S
CENTENNIAL     PTSUNNY   66  43  43 NE9G17    30.03S THUNDER
BROOMFIELD     PTSUNNY   64  41  42 CALM      30.04S
FORT COLLINS   CLOUDY    63  48  59 W6        30.02S
LONGMONT       CLOUDY    67  49  52 NW3       30.02S
$$

COZ041-046-047-076>085-087-088-270100-
...PIKES PEAK/PALMER DIVIDE AND SOUTHERN FOOTHILLS...

CITY           SKY/WX    TMP DP  RH WIND       PRES   REMARKS
COLO. SPRINGS  CLOUDY    62  45  53 E7        30.07S
A. F. ACADEMY  PTSUNNY   63  41  44 S12       30.07S
ELLICOTT       CLOUDY   N/A N/A N/A S12       30.06F
FALCON         CLOUDY    62  38  40 S5        30.11S
FORT CARSON    PTSUNNY   64  46  51 E7        30.04F
LIMON          PTSUNNY   66  45  46 S12       30.04F
MONUMENT HILL  PTSUNNY   54  41  62 NE16      30.10F
TRINIDAD       LGT RAIN  66  47  50 SE16      30.03R
$$

COZ042>045-048>051-090-091-270100-
...NORTHEAST COLORADO...

CITY           SKY/WX    TMP DP  RH WIND       PRES   REMARKS
GREELEY ARPT   CLOUDY    63  48  59 N8        30.00F
AKRON          PTSUNNY   67  50  54 E14       30.01S
BURLINGTON     MOSUNNY   67  49  52 SE12      30.01F
WRAY           PTSUNNY   71  49  45 NE8       29.99S
STERLING       PTSUNNY   68  52  56 SE7       29.98S
HOLYOKE        SUNNY     72  52  49 E7        30.00S
FORT MORGAN    PTSUNNY   68  48  47 E10       30.00S
$$

COZ086-089-092>099-270100-
...SOUTHEAST COLORADO...

CITY           SKY/WX    TMP DP  RH WIND       PRES   REMARKS
PUEBLO         MOSUNNY   73  43  33 E14       29.97S
LA JUNTA       MOSUNNY   76  46  34 E10G20    29.97F
LAMAR          SUNNY     74  47  38 S6        29.96S
SPRINGFIELD      N/A     72  46  39 SE9       30.00S
$$


USA.gov is the U.S. government's official web portal to all federal, state and local government web resources and services.